Regional Weather Roundup
Issued by NWS

Home | Current Version | Previous Version | Text Only | Print | Product List | Glossary Off
Versions: 1 2 3 4 5 6 7 8 9 10 11 12 13 14 15 16 17 18 19 20 21 22 23 24 25 26 27 28 29 30 31 32 33 34 35 36 37 38 39 40 41 42 43 44 45 46 47 48 49 50

000
ASUS45 KSLC 020110
RWRUT

UTAH REGIONAL WEATHER ROUNDUP
NATIONAL WEATHER SERVICE SALT LAKE CITY UT
700 PM MDT TUE SEP 01 2015

UTZ001>011-023>025-020200-

NORTHERN UTAH

CITY           SKY/WX    TMP DP  RH WIND       PRES   REMARKS
BRIGHAM CITY   SUNNY     89  32  13 SE7       29.89S
HILL AFB       SUNNY     86  45  24 N2        29.93F
LOGAN          SUNNY     87  41  19 SW6       29.90F
OGDEN          SUNNY     89  42  19 E6        29.90F
PROVO AIRPORT  MOSUNNY  N/A N/A N/A SW10      29.94S
SALT LAKE CITY LGT RAIN  87  42  20 S31G41    29.88R
VERNAL         MOCLDY    75  43  31 SE12      30.09S
WENDOVER       SUNNY     90  34  13 NE8       29.84F
HEBER CITY     SUNNY     82  32  16 SW12G17   30.02R
WEST JORDAN    MOSUNNY   88  39  18 SE15      29.92S

$$

UTZ012>022-026-027-020200-

SOUTHERN/CENTRAL UTAH

CITY           SKY/WX    TMP DP  RH WIND       PRES   REMARKS
BLANDING       PTCLDY    82  44  26 SW6       30.19S
BRYCE CANYON     N/A     73  40  30 S10       30.25S
CEDAR CITY       N/A     81  39  22 SW14      30.07S
DELTA          SUNNY     89  29  11 S18G24    29.95S
HANKSVILLE     MOCLDY    81  52  36 E7        30.01S
MILFORD        SUNNY     86  33  15 SW23      30.00S
MOAB/CYNLANDS  CLEAR     83  47  28 VRB3      30.01R
PRICE          CLOUDY    75  43  31 S12       30.13R
ST GEORGE      CLEAR     93  45  18 W9        29.89R
KANAB          MOSUNNY   79  46  31 S9G16     30.12R

$$

REGIONAL REPORTS     COLORADO/ARIZONA

CITY           SKY/WX    TMP DP  RH WIND       PRES   REMARKS
CRAIG, CO      CLOUDY    70  41  34 S15       30.16R
GRAND JUNCTION LGT RAIN  72  51  47 N20G26    30.08R
RIFLE          LGT RAIN  72  51  47 SW8       30.11R
MONTROSE       PTCLDY    82  44  26 E5        30.10F
CORTEZ         CLEAR     80  46  30 S12       30.13S
PAGE, AZ       MOCLDY    88  48  25 CALM      30.00S
GRAND CANYON   PTSUNNY   70  53  54 SE10G17   30.22R
KINGMAN        SUNNY     90  46  21 SW16      29.97R
FLAGSTAFF      PTSUNNY   71  51  49 SW13      30.27R

$$

REGIONAL REPORTS    NEVADA/IDAHO/WYOMING

CITY           SKY/WX    TMP DP  RH WIND       PRES   REMARKS
LAS VEGAS, NV  PTSUNNY   96  51  21 SE10G18   29.78S HX  93
ELY            MOSUNNY   82  27  13 S14G28    30.05S
ELKO           SUNNY     88  24  10 VRB3      29.89F
POCATELLO, ID  MOSUNNY   87  28  12 CALM      29.88F
BURLEY         MOSUNNY   85  41  21 N5        29.83F
EVANSTON, WY   MOCLDY    78  32  18 W15G22    30.13S
ROCK SPRINGS   CLOUDY    66  49  54 E9        30.13F
KEMMERER       MOCLDY   N/A N/A N/A W13       30.16R

$$



USA.gov is the U.S. government's official web portal to all federal, state and local government web resources and services.